FW1349 Weather Reports


Display with metric or nautical units.
time (UTC)temp
F
wind
direction
speed
MPH
gust
MPH
rain 1hr
in
rain 24hr
in
rain mn
in
humidity
%
barometer
mb
20260505125017 41 90 3.0 6.0 0.00 0.00 0.00 51 893.7
20260505124016 41 113 3.0 8.0 0.00 0.00 0.00 52 893.7
20260505123037 41 113 3.0 6.0 0.00 0.00 0.00 55 893.7
20260505122016 40 90 3.0 8.0 0.00 0.00 0.00 56 893.7
20260505121057 40 113 3.0 8.0 0.00 0.00 0.00 57 893.7
20260505120017 40 68 2.0 5.0 0.00 0.00 0.00 58 893.7
20260505115017 40 45 2.0 5.0 0.00 0.00 0.00 59 893.7
20260505114017 40 90 3.0 7.0 0.00 0.00 0.00 60 893.7
20260505113016 40 90 3.0 8.0 0.00 0.00 0.00 62 893.7
20260505112016 40 68 3.0 6.0 0.00 0.00 0.00 63 893.7
20260505111017 40 113 3.0 6.0 0.00 0.00 0.00 63 893.7
20260505102016 41 113 2.0 6.0 0.00 0.00 0.00 64 893.8
20260505101017 41 0.0 2.0 0.00 0.00 0.00 63 893.9
20260505100016 41 90 1.0 2.0 0.00 0.00 0.00 62 893.9
20260505095037 41 90 2.0 5.0 0.00 0.00 0.00 61 893.9
20260505094016 42 68 2.0 8.0 0.00 0.00 0.00 61 893.9
20260505093016 42 90 2.0 8.0 0.00 0.00 0.00 60 893.9
20260505092016 42 113 3.0 11.0 0.00 0.00 0.00 60 893.9
20260505091036 42 68 2.0 7.0 0.00 0.00 0.00 59 893.9
20260505090016 43 45 2.0 7.0 0.00 0.00 0.00 58 893.9
20260505085016 43 113 2.0 7.0 0.00 0.00 0.00 57 893.9
20260505084015 43 90 3.0 7.0 0.00 0.00 0.00 56 894.0
20260505083015 43 90 3.0 10.0 0.00 0.00 0.00 56 894.0
20260505082036 43 68 2.0 5.0 0.00 0.00 0.00 55 894.0
20260505081015 43 90 2.0 3.0 0.00 0.00 0.00 55 894.0
20260505080016 43 90 2.0 6.0 0.00 0.00 0.00 55 894.0
20260505075015 43 90 3.0 8.0 0.00 0.00 0.00 55 894.0
20260505074016 43 113 2.0 7.0 0.00 0.00 0.00 56 894.0
20260505073015 43 113 2.0 6.0 0.00 0.00 0.00 56 894.0
20260505072017 44 113 2.0 5.0 0.00 0.00 0.00 56 894.0
20260505071038 44 45 2.0 4.0 0.00 0.00 0.00 56 894.0
20260505070017 44 90 1.0 6.0 0.00 0.00 0.00 56 894.0
20260505065017 44 90 2.0 4.0 0.00 0.00 0.00 56 894.0
20260505064058 43 90 3.0 8.0 0.00 0.00 0.00 56 893.9
20260505063018 43 68 3.0 5.0 0.00 0.00 0.00 57 893.9
20260505062017 43 90 2.0 4.0 0.00 0.00 0.00 59 893.9
20260505061017 43 68 1.0 6.0 0.00 0.00 0.00 60 894.1
20260505060017 43 0.0 1.0 0.00 0.00 0.00 61 894.1
20260505055017 43 0.0 1.0 0.00 0.00 0.00 60 894.1
20260505054017 44 0.0 2.0 0.00 0.00 0.00 59 894.0
20260505053038 44 0.0 0.0 0.00 0.00 0.00 59 894.1
20260505052037 44 0.0 2.0 0.00 0.00 0.00 58 894.1
20260505051017 44 0.0 2.0 0.00 0.00 0.00 58 894.1
20260505041017 46 0.0 0.0 0.00 0.00 0.00 54 887.0
20260505040016 46 0.0 0.0 0.00 0.00 0.00 53 887.0
20260505035016 46 0.0 0.0 0.00 0.00 0.00 52
20260505034016 47 0.0 1.0 0.00 0.00 0.00 52
20260505033016 47 68 1.0 2.0 0.00 0.00 0.00 51
20260505032017 47 68 1.0 2.0 0.00 0.00 0.00 50
20260505031016 47 0.0 0.0 0.00 0.00 0.00 49
20260505030037 48 0.0 1.0 0.00 0.00 0.00 48
20260505025016 48 68 1.0 3.0 0.00 0.00 0.00 47
20260505024016 48 0.0 2.0 0.00 0.00 0.00 45
20260505023015 49 68 1.0 2.0 0.00 0.00 0.00 45
20260505022015 49 68 1.0 4.0 0.00 0.00 0.00 44
20260505021016 49 68 1.0 2.0 0.00 0.00 0.00 44
20260505020015 49 113 1.0 3.0 0.00 0.00 0.00 43
20260505015016 50 90 2.0 6.0 0.00 0.00 0.00 42
20260505014015 50 90 3.0 8.0 0.00 0.00 0.00 42
20260505013016 50 68 4.0 8.0 0.00 0.00 0.00 42
20260505012017 51 90 4.0 11.0 0.00 0.00 0.00 42
20260505011017 51 113 5.0 11.0 0.00 0.00 0.00 42
20260505010017 52 90 7.0 14.0 0.00 0.00 0.00 42
20260505005017 53 113 5.0 9.0 0.00 0.00 0.00 41
20260505004018 53 45 5.0 16.0 0.00 0.00 0.00 40
20260505003017 54 113 3.0 10.0 0.00 0.00 0.00 40
20260505002017 54 113 6.0 14.0 0.00 0.00 0.00 40
20260505001017 54 113 4.0 11.0 0.00 0.00 0.00 40
20260505000038 54 68 4.0 10.0 0.00 0.00 0.00 39
20260504235017 55 68 5.0 11.0 0.00 0.00 0.00 38
20260504234017 55 90 5.0 18.0 0.00 0.00 0.00 39
20260504233018 55 113 5.0 11.0 0.00 0.00 0.00 38
20260504232037 56 90 7.0 16.0 0.00 0.00 0.00 38
20260504231016 56 45 5.0 12.0 0.00 0.00 0.00 38
20260504230017 57 90 5.0 10.0 0.00 0.00 0.00 39
20260504225017 57 90 7.0 19.0 0.00 0.00 0.00 38
20260504224017 58 113 6.0 13.0 0.00 0.00 0.00 39
20260504223037 59 113 5.0 14.0 0.00 0.00 0.00 37
20260504222016 59 113 7.0 17.0 0.00 0.00 0.00 38
20260504221017 60 90 5.0 10.0 0.00 0.00 0.00 37
20260504220016 60 90 7.0 13.0 0.00 0.00 0.00 37
20260504215056 61 113 6.0 17.0 0.00 0.00 0.00 37
20260504214016 61 68 4.0 13.0 0.00 0.00 0.00 37
20260504213017 61 90 5.0 15.0 0.00 0.00 0.00 36
20260504212057 62 113 4.0 13.0 0.00 0.00 0.00 36
20260504211016 62 90 4.0 15.0 0.00 0.00 0.00 37
20260504210037 62 68 5.0 10.0 0.00 0.00 0.00 38
20260504205016 62 90 6.0 14.0 0.00 0.00 0.00 36
20260504204016 63 68 6.0 17.0 0.00 0.00 0.00 37
20260504203017 63 90 9.0 17.0 0.00 0.00 0.00 35
20260504202016 63 113 6.0 11.0 0.00 0.00 0.00 37
20260504201017 63 90 6.0 12.0 0.00 0.00 0.00 37
20260504200016 63 90 6.0 15.0 0.00 0.00 0.00 37
20260504195016 63 90 6.0 14.0 0.00 0.00 0.00 38
20260504194016 63 90 7.0 18.0 0.00 0.00 0.00 37
20260504193037 63 90 6.0 12.0 0.00 0.00 0.00 38
20260504192016 63 90 7.0 13.0 0.00 0.00 0.00 36
20260504191016 63 90 4.0 10.0 0.00 0.00 0.00 38
20260504190016 63 90 5.0 10.0 0.00 0.00 0.00 38
20260504185016 62 90 6.0 13.0 0.00 0.00 0.00 36
20260504184016 62 90 6.0 12.0 0.00 0.00 0.00 37
20260504183016 62 68 6.0 13.0 0.00 0.00 0.00 36
20260504182016 62 90 6.0 14.0 0.00 0.00 0.00 34
20260504181016 63 90 6.0 13.0 0.00 0.00 0.00 33
20260504180016 64 68 6.0 14.0 0.00 0.00 0.00 35
20260504175015 65 113 6.0 13.0 0.00 0.00 0.00 35
20260504174016 65 68 6.0 17.0 0.00 0.00 0.00 36
20260504173015 64 90 7.0 13.0 0.00 0.00 0.00 36
20260504172016 64 90 6.0 12.0 0.00 0.00 0.00 38
20260504171036 64 68 6.0 14.0 0.00 0.00 0.00 35
20260504151017 63 90 4.0 10.0 0.00 0.00 0.00 41
20260504141017 62 68 6.0 17.0 0.00 0.00 0.00 38